START_TIME,STEP,MOV.,H8,t_acc.,H43,t_acc.,M25,t_acc.,H9,t_acc.
1979-07-18 12:00:29.420 ,0,0,0.,12.0,0.,12.0,0.,12.0,0.,12.0
1979-07-18 12:00:41.420 ,0,0,0.,12.0,0.,12.0,0.,12.0,0.,12.0
1979-07-18 12:00:53.420 ,1,0,1.,12.0,0.,12.0,0.,12.0,0.,12.0
1979-07-18 12:01:05.420 ,1,0,0.,12.0,0.,12.0,0.,12.0,0.,12.0
1979-07-18 12:01:17.420 ,1,0,0.,12.0,0.,12.0,0.,12.0,0.,12.0
1979-07-18 12:01:29.420 ,1,0,0.,12.0,0.,12.0,0.,12.0,0.,12.0
1979-07-18 12:01:41.420 ,2,0,0.,12.0,0.,12.0,0.,12.0,0.,12.0
1979-07-18 12:01:53.420 ,2,0,0.,12.0,0.,12.0,0.,12.0,0.,12.0
1979-07-18 12:02:05.420 ,2,0,0.,12.0,0.,12.0,0.,12.0,0.,12.0
1979-07-18 12:02:17.420 ,2,0,0.,12.0,0.,12.0,0.,12.0,0.,12.0
1979-07-18 12:02:29.420 ,3,0,0.,12.0,0.,12.0,0.,12.0,0.,12.0
1979-07-18 12:02:41.420 ,3,0,0.,12.0,0.,12.0,0.,12.0,0.,12.0
1979-07-18 12:02:53.420 ,3,0,0.,12.0,0.,12.0,0.,12.0,0.,12.0
1979-07-18 12:03:05.420 ,3,0,0.,12.0,0.,12.0,0.,12.0,0.,12.0
1979-07-18 12:03:17.420 ,4,0,0.,12.0,0.,12.0,0.,12.0,0.,12.0
1979-07-18 12:03:29.420 ,4,0,0.,12.0,0.,12.0,0.,12.0,0.,12.0
1979-07-18 12:03:41.420 ,4,0,0.,12.0,0.,12.0,0.,12.0,0.,12.0
1979-07-18 12:03:53.420 ,4,0,0.,12.0,0.,12.0,0.,12.0,0.,12.0
1979-07-18 12:04:05.420 ,5,0,0.,12.0,0.,12.0,0.,12.0,0.,12.0
1979-07-18 12:04:17.420 ,5,0,0.,12.0,0.,12.0,0.,12.0,0.,12.0
1979-07-18 12:04:29.420 ,5,0,0.,12.0,0.,12.0,0.,12.0,0.,12.0
1979-07-18 12:04:41.420 ,5,0,0.,12.0,0.,12.0,0.,12.0,0.,12.0
1979-07-18 12:04:53.420 ,6,0,0.,12.0,0.,12.0,0.,12.0,0.,12.0
1979-07-18 12:05:05.420 ,6,0,0.,12.0,0.,12.0,0.,12.0,0.,12.0
1979-07-18 12:05:17.420 ,6,0,0.,12.0,0.,12.0,0.,12.0,0.,12.0
1979-07-18 12:05:29.420 ,6,0,0.,12.0,0.,12.0,0.,12.0,0.,12.0
1979-07-18 12:05:41.420 ,7,0,0.,12.0,0.,12.0,0.,12.0,0.,12.0
1979-07-18 12:05:53.420 ,7,0,0.,12.0,0.,12.0,0.,12.0,0.,12.0
1979-07-18 12:06:05.420 ,7,0,0.,12.0,0.,12.0,0.,12.0,0.,12.0
1979-07-18 12:06:17.420 ,7,0,0.,12.0,0.,12.0,0.,12.0,0.,12.0
1979-07-18 12:06:29.420 ,7,0,0.,12.0,0.,12.0,0.,12.0,0.,12.0
1979-07-18 12:06:41.420 ,7,0,0.,12.0,0.,12.0,0.,12.0,0.,12.0
1979-07-18 12:06:53.420 ,7,0,0.,12.0,0.,12.0,0.,12.0,0.,12.0
1979-07-18 12:07:05.420 ,7,0,0.,12.0,0.,12.0,0.,12.0,0.,12.0
1979-07-18 12:07:17.420 ,6,0,0.,12.0,0.,12.0,0.,12.0,0.,12.0
1979-07-18 12:07:29.420 ,6,0,0.,12.0,0.,12.0,0.,12.0,0.,12.0
1979-07-18 12:07:41.420 ,6,0,0.,12.0,0.,12.0,0.,12.0,0.,12.0
1979-07-18 12:07:53.420 ,6,0,0.,12.0,0.,12.0,0.,12.0,0.,12.0
1979-07-18 12:13:41.420 ,0,0,0.,12.0,0.,12.0,0.,12.0,0.,12.0
1979-07-18 12:13:53.420 ,0,0,0.,12.0,0.,12.0,0.,12.0,0.,12.0
1979-07-18 12:14:05.420 ,0,0,0.,12.0,0.,12.0,0.,12.0,0.,12.0
1979-07-18 12:14:17.420 ,0,0,0.,12.0,0.,12.0,0.,12.0,0.,12.0
1979-07-18 12:14:29.420 ,2,0,0.,12.0,0.,12.0,0.,12.0,0.,12.0
1979-07-18 12:14:41.420 ,2,0,0.,12.0,0.,12.0,0.,12.0,0.,12.0
1979-07-18 12:14:53.420 ,2,0,0.,12.0,0.,12.0,0.,12.0,0.,12.0
1979-07-18 12:15:05.420 ,2,0,0.,12.0,0.,12.0,0.,12.0,0.,12.0
1979-07-18 12:15:17.420 ,3,0,0.,12.0,0.,12.0,0.,12.0,0.,12.0
1979-07-18 12:15:29.420 ,3,0,0.,12.0,0.,12.0,0.,12.0,0.,12.0
1979-07-18 12:15:41.420 ,3,0,1.,12.0,0.,12.0,0.,12.0,0.,12.0
1979-07-18 12:15:53.420 ,3,0,0.,12.0,0.,12.0,0.,12.0,0.,12.0
1979-07-18 12:16:53.420 ,0,0,0.,12.0,0.,12.0,0.,12.0,0.,12.0
1979-07-18 12:17:05.420 ,0,0,0.,12.0,0.,12.0,0.,12.0,0.,12.0
1979-07-18 12:17:17.420 ,0,0,0.,12.0,0.,12.0,0.,12.0,0.,12.0
1979-07-18 12:17:29.420 ,0,0,0.,12.0,0.,12.0,0.,12.0,0.,12.0
1979-07-18 12:17:41.420 ,6,0,0.,12.0,0.,12.0,0.,12.0,0.,12.0
1979-07-18 12:17:53.420 ,6,0,0.,12.0,0.,12.0,0.,12.0,0.,12.0
1979-07-18 12:18:05.420 ,6,0,1.,12.0,0.,12.0,0.,12.0,0.,12.0
1979-07-18 12:18:17.420 ,6,0,0.,12.0,0.,12.0,0.,12.0,0.,12.0
1979-07-18 12:18:29.420 ,7,0,0.,12.0,0.,12.0,0.,12.0,0.,12.0
1979-07-18 12:18:41.420 ,7,0,0.,12.0,0.,12.0,0.,12.0,0.,12.0
1979-07-18 12:18:53.420 ,7,0,0.,12.0,0.,12.0,0.,12.0,0.,12.0
1979-07-18 12:19:05.420 ,7,0,0.,12.0,0.,12.0,0.,12.0,0.,12.0
1979-07-18 12:19:17.420 ,3,1,0.,12.0,0.,12.0,0.,12.0,0.,12.0
1979-07-18 12:19:29.420 ,3,1,0.,12.0,0.,12.0,0.,12.0,0.,12.0
1979-07-18 12:19:41.420 ,0,1,0.,12.0,0.,12.0,0.,12.0,0.,12.0
1979-07-18 12:19:53.420 ,0,1,0.,12.0,0.,12.0,0.,12.0,0.,12.0
1979-07-18 12:20:05.420 ,4,1,0.,12.0,0.,12.0,0.,12.0,0.,12.0
1979-07-18 12:20:17.420 ,4,1,0.,12.0,0.,12.0,0.,12.0,0.,12.0
1979-07-18 12:20:29.420 ,7,1,0.,12.0,0.,12.0,0.,12.0,0.,12.0
1979-07-18 12:20:41.420 ,7,1,0.,12.0,0.,12.0,0.,12.0,0.,12.0
1979-07-18 12:20:53.420 ,3,1,0.,12.0,0.,12.0,0.,12.0,0.,12.0
1979-07-18 12:21:05.420 ,3,1,0.,12.0,0.,12.0,0.,12.0,0.,12.0
1979-07-18 12:21:17.420 ,0,1,0.,12.0,0.,12.0,0.,12.0,0.,12.0
1979-07-18 12:21:29.420 ,0,1,0.,12.0,0.,12.0,0.,12.0,0.,12.0
1979-07-18 12:21:41.420 ,4,1,0.,12.0,0.,12.0,0.,12.0,0.,12.0
1979-07-18 12:21:53.420 ,4,1,0.,12.0,0.,12.0,0.,12.0,0.,12.0
1979-07-18 12:22:05.420 ,7,1,0.,12.0,0.,12.0,0.,12.0,0.,12.0
1979-07-18 12:22:17.420 ,7,1,1.,12.0,0.,12.0,0.,12.0,0.,12.0
1979-07-18 12:22:29.420 ,3,1,0.,12.0,0.,12.0,0.,12.0,0.,12.0
1979-07-18 12:22:41.420 ,3,1,0.,12.0,0.,12.0,0.,12.0,0.,12.0
1979-07-18 12:22:53.420 ,0,1,0.,12.0,0.,12.0,0.,12.0,0.,12.0
1979-07-18 12:23:05.420 ,0,1,0.,12.0,0.,12.0,0.,12.0,0.,12.0
1979-07-18 12:23:17.420 ,4,1,0.,12.0,0.,12.0,0.,12.0,0.,12.0
1979-07-18 12:23:29.420 ,4,1,0.,12.0,0.,12.0,0.,12.0,0.,12.0
1979-07-18 12:23:41.420 ,7,1,0.,12.0,0.,12.0,0.,12.0,0.,12.0
1979-07-18 12:23:53.420 ,7,1,0.,12.0,0.,12.0,0.,12.0,0.,12.0
1979-07-18 12:24:05.420 ,3,1,0.,12.0,0.,12.0,0.,12.0,0.,12.0
1979-07-18 12:24:17.420 ,3,1,0.,12.0,0.,12.0,0.,12.0,0.,12.0
1979-07-18 12:24:29.420 ,0,1,0.,12.0,0.,12.0,0.,12.0,0.,12.0
1979-07-18 12:24:41.420 ,0,1,0.,12.0,0.,12.0,0.,12.0,0.,12.0
1979-07-18 12:24:53.420 ,4,1,0.,12.0,0.,12.0,0.,12.0,0.,12.0
1979-07-18 12:25:05.420 ,4,1,0.,12.0,0.,12.0,0.,12.0,0.,12.0
1979-07-18 12:25:17.420 ,7,1,0.,12.0,0.,12.0,0.,12.0,0.,12.0
1979-07-18 12:25:29.420 ,7,1,0.,12.0,0.,12.0,0.,12.0,0.,12.0
1979-07-18 12:25:41.420 ,3,1,0.,12.0,0.,12.0,0.,12.0,0.,12.0
1979-07-18 12:25:53.420 ,3,1,0.,12.0,0.,12.0,0.,12.0,0.,12.0
1979-07-18 12:26:05.420 ,0,1,0.,12.0,0.,12.0,0.,12.0,0.,12.0
1979-07-18 12:26:17.420 ,0,1,0.,12.0,0.,12.0,0.,12.0,0.,12.0
1979-07-18 12:26:29.420 ,4,1,0.,12.0,0.,12.0,0.,12.0,0.,12.0
1979-07-18 12:26:41.420 ,4,1,0.,12.0,0.,12.0,0.,12.0,0.,12.0
1979-07-18 12:26:53.420 ,7,1,0.,12.0,0.,12.0,0.,12.0,0.,12.0
1979-07-18 12:27:05.420 ,7,1,0.,12.0,0.,12.0,0.,12.0,0.,12.0
1979-07-18 12:27:17.420 ,3,1,0.,12.0,0.,12.0,0.,12.0,0.,12.0
1979-07-18 12:27:29.420 ,3,1,0.,12.0,0.,12.0,0.,12.0,0.,12.0
1979-07-18 12:27:41.420 ,0,1,0.,12.0,0.,12.0,0.,12.0,0.,12.0
1979-07-18 12:27:53.420 ,0,1,0.,12.0,0.,12.0,0.,12.0,0.,12.0
1979-07-18 12:28:05.420 ,4,1,0.,12.0,0.,12.0,0.,12.0,0.,12.0
1979-07-18 12:28:17.420 ,4,1,0.,12.0,0.,12.0,0.,12.0,0.,12.0
1979-07-18 12:28:29.420 ,7,1,0.,12.0,0.,12.0,0.,12.0,0.,12.0
1979-07-18 12:28:41.420 ,7,1,0.,12.0,0.,12.0,0.,12.0,0.,12.0
1979-07-18 12:28:53.420 ,3,1,0.,12.0,0.,12.0,0.,12.0,0.,12.0
1979-07-18 12:29:05.420 ,3,1,0.,12.0,0.,12.0,0.,12.0,0.,12.0
1979-07-18 12:29:17.420 ,0,1,0.,12.0,0.,12.0,0.,12.0,0.,12.0
1979-07-18 12:29:29.420 ,0,1,0.,12.0,0.,12.0,0.,12.0,0.,12.0
1979-07-18 12:29:41.420 ,0,0,0.,12.0,0.,12.0,0.,12.0,0.,12.0
1979-07-18 12:29:53.420 ,0,0,0.,12.0,0.,12.0,0.,12.0,0.,12.0
1979-07-18 12:30:05.420 ,0,0,0.,12.0,0.,12.0,0.,12.0,0.,12.0
1979-07-18 12:30:17.420 ,0,0,0.,12.0,0.,12.0,0.,12.0,0.,12.0
1979-07-18 12:30:29.420 ,5,0,0.,12.0,0.,12.0,0.,12.0,0.,12.0
1979-07-18 12:30:41.420 ,5,0,0.,12.0,0.,12.0,0.,12.0,0.,12.0
1979-07-18 12:30:53.420 ,5,0,0.,12.0,0.,12.0,0.,12.0,0.,12.0
1979-07-18 12:31:05.420 ,5,0,0.,12.0,0.,12.0,0.,12.0,0.,12.0
1979-07-18 12:31:17.420 ,4,0,0.,12.0,0.,12.0,0.,12.0,0.,12.0
1979-07-18 12:31:29.420 ,4,0,0.,12.0,0.,12.0,0.,12.0,0.,12.0
1979-07-18 12:31:41.420 ,4,0,0.,12.0,0.,12.0,0.,12.0,0.,12.0
1979-07-18 12:31:53.420 ,4,0,0.,12.0,0.,12.0,0.,12.0,0.,12.0
1979-07-18 12:32:05.420 ,3,0,0.,12.0,0.,12.0,0.,12.0,0.,12.0
1979-07-18 12:32:17.420 ,3,0,0.,12.0,0.,12.0,0.,12.0,0.,12.0
1979-07-18 12:32:29.420 ,3,0,0.,12.0,0.,12.0,0.,12.0,0.,12.0
1979-07-18 12:32:41.420 ,3,0,0.,12.0,0.,12.0,0.,12.0,0.,12.0
1979-07-18 12:32:53.420 ,2,0,0.,12.0,0.,12.0,0.,12.0,0.,12.0
1979-07-18 12:33:05.420 ,2,0,0.,12.0,0.,12.0,0.,12.0,0.,12.0
1979-07-18 12:33:17.420 ,2,0,0.,12.0,0.,12.0,0.,12.0,0.,12.0
1979-07-18 12:33:29.420 ,2,0,0.,12.0,0.,12.0,0.,12.0,0.,12.0
1979-07-18 12:33:41.420 ,1,0,0.,12.0,0.,12.0,0.,12.0,0.,12.0
1979-07-18 12:33:53.420 ,1,0,0.,12.0,0.,12.0,0.,12.0,0.,12.0
1979-07-18 12:34:05.420 ,1,0,0.,12.0,0.,12.0,0.,12.0,0.,12.0
1979-07-18 12:34:17.420 ,1,0,0.,12.0,0.,12.0,0.,12.0,0.,12.0
1979-07-18 12:34:29.420 ,0,0,0.,12.0,0.,12.0,0.,12.0,0.,12.0
1979-07-18 12:34:41.420 ,0,0,0.,12.0,0.,12.0,0.,12.0,0.,12.0
1979-07-18 12:34:53.420 ,0,0,0.,12.0,0.,12.0,0.,12.0,0.,12.0
1979-07-18 12:35:05.420 ,0,0,0.,12.0,0.,12.0,0.,12.0,0.,12.0
1979-07-18 12:35:17.420 ,0,0,0.,12.0,0.,12.0,0.,12.0,0.,12.0
1979-07-18 12:35:29.420 ,0,0,0.,12.0,0.,12.0,0.,12.0,0.,12.0
1979-07-18 12:35:41.420 ,0,0,0.,12.0,0.,12.0,0.,12.0,0.,12.0
1979-07-18 12:35:53.420 ,0,0,0.,12.0,0.,12.0,0.,12.0,0.,12.0
1979-07-18 12:36:53.420 ,0,0,0.,12.0,0.,12.0,0.,12.0,0.,12.0
1979-07-18 12:37:05.420 ,0,0,0.,12.0,0.,12.0,0.,12.0,0.,12.0
1979-07-18 12:37:17.420 ,0,0,0.,12.0,0.,12.0,0.,12.0,0.,12.0
1979-07-18 12:37:29.420 ,0,0,0.,12.0,0.,12.0,0.,12.0,0.,12.0
1979-07-18 12:37:41.420 ,3,0,0.,12.0,0.,12.0,0.,12.0,0.,12.0
1979-07-18 12:37:53.420 ,3,0,0.,12.0,0.,12.0,0.,12.0,0.,12.0
1979-07-18 12:38:05.420 ,3,0,0.,12.0,0.,12.0,0.,12.0,0.,12.0
1979-07-18 12:38:17.420 ,3,0,0.,12.0,0.,12.0,0.,12.0,0.,12.0
1979-07-18 12:38:29.420 ,4,0,0.,12.0,0.,12.0,0.,12.0,0.,12.0
1979-07-18 12:38:41.420 ,4,0,0.,12.0,0.,12.0,0.,12.0,0.,12.0
1979-07-18 12:38:53.420 ,4,0,0.,12.0,0.,12.0,0.,12.0,0.,12.0
1979-07-18 12:39:05.420 ,4,0,0.,12.0,0.,12.0,0.,12.0,0.,12.0
1979-07-18 12:39:17.420 ,5,0,0.,12.0,0.,12.0,0.,12.0,0.,12.0
1979-07-18 12:39:29.420 ,5,0,0.,12.0,0.,12.0,0.,12.0,0.,12.0
1979-07-18 12:39:41.420 ,5,0,0.,12.0,0.,12.0,0.,12.0,0.,12.0
1979-07-18 12:39:53.420 ,5,0,0.,12.0,0.,12.0,0.,12.0,0.,12.0
1979-07-18 12:40:05.420 ,6,0,0.,12.0,0.,12.0,0.,12.0,0.,12.0
1979-07-18 12:40:17.420 ,6,0,0.,12.0,0.,12.0,0.,12.0,0.,12.0
1979-07-18 12:40:29.420 ,6,0,0.,12.0,0.,12.0,0.,12.0,0.,12.0
1979-07-18 12:40:41.420 ,6,0,0.,12.0,0.,12.0,0.,12.0,0.,12.0
1979-07-18 12:40:53.420 ,7,0,0.,12.0,0.,12.0,0.,12.0,0.,12.0
1979-07-18 12:41:05.420 ,7,0,0.,12.0,0.,12.0,0.,12.0,0.,12.0
1979-07-18 12:41:17.420 ,7,0,0.,12.0,0.,12.0,0.,12.0,0.,12.0
1979-07-18 12:41:29.420 ,7,0,0.,12.0,0.,12.0,0.,12.0,0.,12.0
1979-07-18 12:41:41.420 ,7,0,0.,12.0,0.,12.0,0.,12.0,0.,12.0
1979-07-18 12:41:53.420 ,7,0,0.,12.0,0.,12.0,0.,12.0,0.,12.0
1979-07-18 12:42:05.420 ,7,0,0.,12.0,0.,12.0,0.,12.0,0.,12.0
1979-07-18 12:42:17.420 ,7,0,0.,12.0,0.,12.0,0.,12.0,0.,12.0
1979-07-18 12:42:29.420 ,6,0,0.,12.0,0.,12.0,0.,12.0,0.,12.0
1979-07-18 12:42:41.420 ,6,0,0.,12.0,0.,12.0,0.,12.0,0.,12.0
1979-07-18 12:42:53.420 ,6,0,0.,12.0,0.,12.0,0.,12.0,0.,12.0
1979-07-18 12:43:05.420 ,6,0,0.,12.0,0.,12.0,0.,12.0,0.,12.0
1979-07-18 12:44:05.420 ,0,0,0.,12.0,0.,12.0,0.,12.0,0.,12.0
1979-07-18 12:44:17.420 ,0,0,0.,12.0,0.,12.0,0.,12.0,0.,12.0
1979-07-18 12:44:29.420 ,0,0,0.,12.0,0.,12.0,0.,12.0,0.,12.0
1979-07-18 12:44:41.420 ,0,0,0.,12.0,0.,12.0,0.,12.0,0.,12.0
1979-07-18 12:44:53.420 ,3,0,0.,12.0,0.,12.0,0.,12.0,0.,12.0
1979-07-18 12:45:05.420 ,3,0,0.,12.0,0.,12.0,0.,12.0,0.,12.0
1979-07-18 12:45:17.420 ,3,0,0.,12.0,0.,12.0,0.,12.0,0.,12.0
1979-07-18 12:45:29.420 ,3,0,0.,12.0,0.,12.0,0.,12.0,0.,12.0
1979-07-18 12:45:41.420 ,2,0,0.,12.0,0.,12.0,0.,12.0,0.,12.0
1979-07-18 12:45:53.420 ,2,0,0.,12.0,0.,12.0,0.,12.0,0.,12.0
1979-07-18 12:46:05.420 ,2,0,0.,12.0,0.,12.0,0.,12.0,0.,12.0
1979-07-18 12:46:17.420 ,2,0,0.,12.0,0.,12.0,0.,12.0,0.,12.0
1979-07-18 12:46:29.420 ,1,0,0.,12.0,0.,12.0,0.,12.0,0.,12.0
1979-07-18 12:46:41.420 ,1,0,0.,12.0,0.,12.0,0.,12.0,0.,12.0
1979-07-18 12:46:53.420 ,1,0,0.,12.0,0.,12.0,0.,12.0,0.,12.0
1979-07-18 12:47:05.420 ,1,0,0.,12.0,0.,12.0,0.,12.0,0.,12.0
1979-07-18 12:47:17.420 ,0,0,0.,12.0,0.,12.0,0.,12.0,0.,12.0
1979-07-18 12:47:29.420 ,0,0,0.,12.0,0.,12.0,0.,12.0,0.,12.0
1979-07-18 12:47:41.420 ,0,0,0.,12.0,0.,12.0,0.,12.0,0.,12.0
1979-07-18 12:47:53.420 ,0,0,0.,12.0,0.,12.0,0.,12.0,0.,12.0
1979-07-18 12:48:05.420 ,0,0,0.,12.0,0.,12.0,0.,12.0,0.,12.0
1979-07-18 12:48:17.420 ,0,0,0.,12.0,0.,12.0,0.,12.0,0.,12.0
1979-07-18 12:48:29.420 ,0,0,0.,12.0,0.,12.0,0.,12.0,0.,12.0
1979-07-18 12:48:41.420 ,0,0,0.,12.0,0.,12.0,0.,12.0,0.,12.0
1979-07-18 12:48:53.420 ,1,0,0.,12.0,0.,12.0,0.,12.0,0.,12.0
1979-07-18 12:49:05.420 ,1,0,0.,12.0,0.,12.0,0.,12.0,0.,12.0
1979-07-18 12:49:17.420 ,1,0,0.,12.0,0.,12.0,0.,12.0,0.,12.0
1979-07-18 12:49:29.420 ,1,0,0.,12.0,0.,12.0,0.,12.0,0.,12.0
1979-07-18 12:49:41.420 ,2,0,0.,12.0,0.,12.0,0.,12.0,0.,12.0
1979-07-18 12:49:53.420 ,2,0,0.,12.0,0.,12.0,0.,12.0,0.,12.0
1979-07-18 12:50:05.420 ,2,0,0.,12.0,0.,12.0,0.,12.0,0.,12.0
1979-07-18 12:50:17.420 ,2,0,0.,12.0,0.,12.0,0.,12.0,0.,12.0
1979-07-18 12:50:29.420 ,3,0,0.,12.0,0.,12.0,0.,12.0,0.,12.0
1979-07-18 12:50:41.420 ,3,0,0.,12.0,0.,12.0,0.,12.0,0.,12.0
1979-07-18 12:50:53.420 ,3,0,0.,12.0,0.,12.0,0.,12.0,0.,12.0
1979-07-18 12:51:05.420 ,3,0,0.,12.0,0.,12.0,0.,12.0,0.,12.0
1979-07-18 12:51:17.420 ,4,0,0.,12.0,0.,12.0,0.,12.0,0.,12.0
1979-07-18 12:51:29.420 ,4,0,1.,12.0,0.,12.0,0.,12.0,0.,12.0
1979-07-18 12:51:41.420 ,4,0,0.,12.0,0.,12.0,0.,12.0,0.,12.0
1979-07-18 12:51:53.420 ,4,0,0.,12.0,0.,12.0,0.,12.0,0.,12.0
1979-07-18 12:52:05.420 ,5,0,0.,12.0,0.,12.0,0.,12.0,0.,12.0
1979-07-18 12:52:17.420 ,5,0,0.,12.0,0.,12.0,0.,12.0,0.,12.0
1979-07-18 12:52:29.420 ,5,0,0.,12.0,0.,12.0,0.,12.0,0.,12.0
1979-07-18 12:52:41.420 ,5,0,0.,12.0,0.,12.0,0.,12.0,0.,12.0
1979-07-18 12:52:53.420 ,6,0,0.,12.0,0.,12.0,0.,12.0,0.,12.0
1979-07-18 12:53:05.420 ,6,0,0.,12.0,0.,12.0,0.,12.0,0.,12.0
1979-07-18 12:53:17.420 ,6,0,0.,12.0,0.,12.0,0.,12.0,0.,12.0
1979-07-18 12:53:29.420 ,6,0,0.,12.0,0.,12.0,0.,12.0,0.,12.0
1979-07-18 12:53:41.420 ,7,0,1.,12.0,0.,12.0,0.,12.0,0.,12.0
1979-07-18 12:53:53.420 ,7,0,0.,12.0,0.,12.0,0.,12.0,0.,12.0
1979-07-18 12:54:05.420 ,7,0,0.,12.0,0.,12.0,0.,12.0,0.,12.0
1979-07-18 12:54:17.420 ,7,0,0.,12.0,0.,12.0,0.,12.0,0.,12.0
1979-07-18 12:54:29.420 ,7,0,0.,12.0,0.,12.0,0.,12.0,0.,12.0
1979-07-18 12:54:41.420 ,7,0,0.,12.0,0.,12.0,0.,12.0,0.,12.0
1979-07-18 12:54:53.420 ,7,0,0.,12.0,0.,12.0,0.,12.0,0.,12.0
1979-07-18 12:55:05.420 ,7,0,0.,12.0,0.,12.0,0.,12.0,0.,12.0
1979-07-18 12:55:17.420 ,6,0,0.,12.0,0.,12.0,0.,12.0,0.,12.0
1979-07-18 12:55:29.420 ,6,0,0.,12.0,0.,12.0,0.,12.0,0.,12.0
1979-07-18 12:55:41.420 ,6,0,0.,12.0,0.,12.0,0.,12.0,0.,12.0
1979-07-18 12:55:53.420 ,6,0,0.,12.0,0.,12.0,0.,12.0,0.,12.0
1979-07-18 12:56:05.420 ,5,0,0.,12.0,0.,12.0,0.,12.0,0.,12.0
1979-07-18 12:56:17.420 ,5,0,0.,12.0,0.,12.0,0.,12.0,0.,12.0
1979-07-18 12:56:29.420 ,5,0,0.,12.0,0.,12.0,0.,12.0,0.,12.0
1979-07-18 12:56:41.420 ,5,0,0.,12.0,0.,12.0,0.,12.0,0.,12.0
1979-07-18 12:56:53.420 ,4,0,0.,12.0,0.,12.0,0.,12.0,0.,12.0
1979-07-18 12:57:05.420 ,4,0,0.,12.0,0.,12.0,0.,12.0,0.,12.0
1979-07-18 12:57:17.420 ,4,0,0.,12.0,0.,12.0,0.,12.0,0.,12.0
1979-07-18 12:57:29.420 ,4,0,0.,12.0,0.,12.0,0.,12.0,0.,12.0
1979-07-18 12:57:41.420 ,3,0,0.,12.0,0.,12.0,0.,12.0,0.,12.0
1979-07-18 12:57:53.420 ,3,0,0.,12.0,0.,12.0,0.,12.0,0.,12.0
1979-07-18 12:58:05.420 ,3,0,0.,12.0,0.,12.0,0.,12.0,0.,12.0
1979-07-18 12:58:17.420 ,3,0,0.,12.0,0.,12.0,0.,12.0,0.,12.0
1979-07-18 12:58:29.420 ,2,0,0.,12.0,0.,12.0,0.,12.0,0.,12.0
1979-07-18 12:58:41.420 ,2,0,0.,12.0,0.,12.0,0.,12.0,0.,12.0
1979-07-18 12:58:53.420 ,2,0,0.,12.0,0.,12.0,0.,12.0,0.,12.0
1979-07-18 12:59:05.420 ,2,0,0.,12.0,0.,12.0,0.,12.0,0.,12.0
1979-07-18 12:59:17.420 ,1,0,0.,12.0,0.,12.0,0.,12.0,0.,12.0
1979-07-18 12:59:29.420 ,1,0,0.,12.0,0.,12.0,0.,12.0,0.,12.0
1979-07-18 12:59:41.420 ,1,0,0.,12.0,0.,12.0,0.,12.0,0.,12.0
1979-07-18 12:59:53.420 ,1,0,0.,12.0,0.,12.0,0.,12.0,0.,12.0
1979-07-18 13:00:05.420 ,0,0,0.,12.0,0.,12.0,0.,12.0,0.,12.0
1979-07-18 13:00:17.420 ,0,0,0.,12.0,0.,12.0,0.,12.0,0.,12.0
1979-07-18 13:00:29.420 ,0,0,0.,12.0,0.,12.0,0.,12.0,0.,12.0
1979-07-18 13:00:41.420 ,0,0,0.,12.0,0.,12.0,0.,12.0,0.,12.0
1979-07-18 13:00:53.420 ,0,0,0.,12.0,0.,12.0,0.,12.0,0.,12.0
1979-07-18 13:01:05.420 ,0,0,0.,12.0,0.,12.0,0.,12.0,0.,12.0
1979-07-18 13:01:17.420 ,0,0,0.,12.0,0.,12.0,0.,12.0,0.,12.0
1979-07-18 13:01:29.420 ,0,0,0.,12.0,0.,12.0,0.,12.0,0.,12.0
1979-07-18 13:01:41.420 ,1,0,0.,12.0,0.,12.0,0.,12.0,0.,12.0
1979-07-18 13:01:53.420 ,1,0,0.,12.0,0.,12.0,0.,12.0,0.,12.0
1979-07-18 13:02:05.420 ,1,0,0.,12.0,0.,12.0,0.,12.0,0.,12.0
1979-07-18 13:02:17.420 ,1,0,0.,12.0,0.,12.0,0.,12.0,0.,12.0
1979-07-18 13:02:29.420 ,2,0,0.,12.0,0.,12.0,0.,12.0,0.,12.0
1979-07-18 13:02:41.420 ,2,0,0.,12.0,0.,12.0,0.,12.0,0.,12.0
1979-07-18 13:02:53.420 ,2,0,0.,12.0,0.,12.0,0.,12.0,0.,12.0
1979-07-18 13:03:05.420 ,2,0,0.,12.0,0.,12.0,0.,12.0,0.,12.0
1979-07-18 13:03:17.420 ,3,0,0.,12.0,0.,12.0,0.,12.0,0.,12.0
1979-07-18 13:03:29.420 ,3,0,0.,12.0,0.,12.0,0.,12.0,0.,12.0
1979-07-18 13:03:41.420 ,3,0,0.,12.0,0.,12.0,0.,12.0,0.,12.0
1979-07-18 13:03:53.420 ,3,0,0.,12.0,0.,12.0,0.,12.0,0.,12.0
1979-07-18 13:04:05.420 ,4,0,0.,12.0,0.,12.0,0.,12.0,0.,12.0
1979-07-18 13:04:17.420 ,4,0,0.,12.0,0.,12.0,0.,12.0,0.,12.0
1979-07-18 13:04:29.420 ,4,0,0.,12.0,0.,12.0,0.,12.0,0.,12.0
1979-07-18 13:04:41.420 ,4,0,0.,12.0,0.,12.0,0.,12.0,0.,12.0
1979-07-18 13:05:41.420 ,0,0,0.,12.0,0.,12.0,0.,12.0,0.,12.0
1979-07-18 13:05:53.420 ,0,0,0.,12.0,0.,12.0,0.,12.0,0.,12.0
1979-07-18 13:06:05.420 ,0,0,0.,12.0,0.,12.0,0.,12.0,0.,12.0
1979-07-18 13:06:17.420 ,0,0,0.,12.0,0.,12.0,0.,12.0,0.,12.0
1979-07-18 13:06:29.420 ,7,0,0.,12.0,0.,12.0,0.,12.0,0.,12.0
1979-07-18 13:06:41.420 ,7,0,0.,12.0,0.,12.0,0.,12.0,0.,12.0
1979-07-18 13:06:53.420 ,7,0,0.,12.0,0.,12.0,0.,12.0,0.,12.0
1979-07-18 13:07:05.420 ,7,0,0.,12.0,0.,12.0,0.,12.0,0.,12.0
1979-07-18 13:07:17.420 ,3,1,0.,12.0,0.,12.0,0.,12.0,0.,12.0
1979-07-18 13:07:29.420 ,3,1,0.,12.0,0.,12.0,0.,12.0,0.,12.0
1979-07-18 13:07:41.420 ,0,1,0.,12.0,0.,12.0,0.,12.0,0.,12.0
1979-07-18 13:07:53.420 ,0,1,0.,12.0,0.,12.0,0.,12.0,0.,12.0
1979-07-18 13:08:05.420 ,4,1,0.,12.0,0.,12.0,0.,12.0,0.,12.0
1979-07-18 13:08:17.420 ,4,1,0.,12.0,0.,12.0,0.,12.0,0.,12.0
1979-07-18 13:08:29.420 ,7,1,0.,12.0,0.,12.0,0.,12.0,0.,12.0
1979-07-18 13:08:41.420 ,7,1,0.,12.0,0.,12.0,0.,12.0,0.,12.0
1979-07-18 13:08:53.420 ,3,1,0.,12.0,0.,12.0,0.,12.0,0.,12.0
1979-07-18 13:09:05.420 ,3,1,0.,12.0,0.,12.0,0.,12.0,0.,12.0
1979-07-18 13:09:17.420 ,0,1,1.,12.0,0.,12.0,0.,12.0,0.,12.0
1979-07-18 13:09:29.420 ,0,1,0.,12.0,0.,12.0,0.,12.0,0.,12.0
1979-07-18 13:09:41.420 ,4,1,0.,12.0,0.,12.0,0.,12.0,0.,12.0
1979-07-18 13:09:53.420 ,4,1,0.,12.0,0.,12.0,0.,12.0,0.,12.0
1979-07-18 13:10:05.420 ,7,1,0.,12.0,0.,12.0,0.,12.0,0.,12.0
1979-07-18 13:10:17.420 ,7,1,0.,12.0,0.,12.0,0.,12.0,0.,12.0
1979-07-18 13:10:29.420 ,3,1,0.,12.0,0.,12.0,0.,12.0,0.,12.0
1979-07-18 13:10:41.420 ,3,1,0.,12.0,0.,12.0,0.,12.0,0.,12.0
1979-07-18 13:10:53.420 ,0,1,0.,12.0,0.,12.0,0.,12.0,0.,12.0
1979-07-18 13:11:05.420 ,0,1,0.,12.0,0.,12.0,0.,12.0,0.,12.0
1979-07-18 13:11:17.420 ,4,1,0.,12.0,0.,12.0,0.,12.0,0.,12.0
1979-07-18 13:11:29.420 ,4,1,0.,12.0,0.,12.0,0.,12.0,0.,12.0
1979-07-18 13:11:41.420 ,7,1,0.,12.0,0.,12.0,0.,12.0,0.,12.0
1979-07-18 13:11:53.420 ,7,1,0.,12.0,0.,12.0,0.,12.0,0.,12.0
1979-07-18 13:12:53.420 ,0,0,0.,12.0,0.,12.0,0.,12.0,0.,12.0
1979-07-18 13:13:05.420 ,0,0,0.,12.0,0.,12.0,0.,12.0,0.,12.0
1979-07-18 13:13:17.420 ,7,1,0.,12.0,0.,12.0,0.,12.0,0.,12.0
1979-07-18 13:13:29.420 ,7,1,0.,12.0,0.,12.0,0.,12.0,0.,12.0
1979-07-18 13:13:41.420 ,3,1,0.,12.0,0.,12.0,0.,12.0,0.,12.0
1979-07-18 13:13:53.420 ,3,1,0.,12.0,0.,12.0,0.,12.0,0.,12.0
1979-07-18 13:14:05.420 ,0,1,0.,12.0,0.,12.0,0.,12.0,0.,12.0
1979-07-18 13:14:17.420 ,0,1,0.,12.0,0.,12.0,0.,12.0,0.,12.0
1979-07-18 13:14:29.420 ,4,1,0.,12.0,0.,12.0,0.,12.0,0.,12.0
1979-07-18 13:14:41.420 ,4,1,0.,12.0,0.,12.0,0.,12.0,0.,12.0
1979-07-18 13:14:53.420 ,7,1,0.,12.0,0.,12.0,0.,12.0,0.,12.0
1979-07-18 13:15:05.420 ,7,1,0.,12.0,0.,12.0,0.,12.0,0.,12.0
1979-07-18 13:15:17.420 ,3,1,0.,12.0,0.,12.0,0.,12.0,0.,12.0
1979-07-18 13:15:29.420 ,3,1,0.,12.0,0.,12.0,0.,12.0,0.,12.0
1979-07-18 13:15:41.420 ,0,1,0.,12.0,0.,12.0,0.,12.0,0.,12.0
1979-07-18 13:15:53.420 ,0,1,0.,12.0,0.,12.0,0.,12.0,0.,12.0
1979-07-18 13:16:05.420 ,4,1,0.,12.0,0.,12.0,0.,12.0,0.,12.0
1979-07-18 13:16:17.420 ,4,1,0.,12.0,0.,12.0,0.,12.0,0.,12.0
1979-07-18 13:16:29.420 ,7,1,0.,12.0,0.,12.0,0.,12.0,0.,12.0
1979-07-18 13:16:41.420 ,7,1,0.,12.0,0.,12.0,0.,12.0,0.,12.0
1979-07-18 13:16:53.420 ,3,1,0.,12.0,0.,12.0,0.,12.0,0.,12.0
1979-07-18 13:17:05.420 ,3,1,0.,12.0,0.,12.0,0.,12.0,0.,12.0
1979-07-18 13:17:17.420 ,0,1,0.,12.0,0.,12.0,0.,12.0,0.,12.0
1979-07-18 13:17:29.420 ,0,1,0.,12.0,0.,12.0,0.,12.0,0.,12.0
1979-07-18 13:17:41.420 ,0,0,0.,12.0,0.,12.0,0.,12.0,0.,12.0
1979-07-18 13:17:53.420 ,0,0,0.,12.0,0.,12.0,0.,12.0,0.,12.0
1979-07-18 13:18:05.420 ,0,0,0.,12.0,0.,12.0,0.,12.0,0.,12.0
1979-07-18 13:18:17.420 ,0,0,0.,12.0,0.,12.0,0.,12.0,0.,12.0
1979-07-18 13:18:29.420 ,5,0,0.,12.0,0.,12.0,0.,12.0,0.,12.0
1979-07-18 13:18:41.420 ,5,0,0.,12.0,0.,12.0,0.,12.0,0.,12.0
1979-07-18 13:18:53.420 ,5,0,0.,12.0,0.,12.0,0.,12.0,0.,12.0
1979-07-18 13:19:05.420 ,5,0,1.,12.0,0.,12.0,0.,12.0,0.,12.0
1979-07-18 13:19:17.420 ,4,0,0.,12.0,0.,12.0,0.,12.0,0.,12.0
1979-07-18 13:19:29.420 ,4,0,0.,12.0,0.,12.0,0.,12.0,0.,12.0
1979-07-18 13:19:41.420 ,4,0,0.,12.0,0.,12.0,0.,12.0,0.,12.0
1979-07-18 13:19:53.420 ,4,0,0.,12.0,0.,12.0,0.,12.0,0.,12.0
1979-07-18 13:20:05.420 ,3,0,0.,12.0,0.,12.0,0.,12.0,0.,12.0
1979-07-18 13:20:17.420 ,3,0,0.,12.0,0.,12.0,0.,12.0,0.,12.0
1979-07-18 13:20:29.420 ,3,0,0.,12.0,0.,12.0,0.,12.0,0.,12.0
1979-07-18 13:20:41.420 ,3,0,0.,12.0,0.,12.0,0.,12.0,0.,12.0
1979-07-18 13:20:53.420 ,2,0,0.,12.0,0.,12.0,0.,12.0,0.,12.0
1979-07-18 13:21:05.420 ,2,0,0.,12.0,0.,12.0,0.,12.0,0.,12.0
1979-07-18 13:21:17.420 ,2,0,1.,12.0,0.,12.0,0.,12.0,0.,12.0
1979-07-18 13:21:29.420 ,2,0,0.,12.0,0.,12.0,0.,12.0,0.,12.0
1979-07-18 13:21:41.420 ,1,0,0.,12.0,0.,12.0,0.,12.0,0.,12.0
1979-07-18 13:21:53.420 ,1,0,0.,12.0,0.,12.0,0.,12.0,0.,12.0
1979-07-18 13:22:05.420 ,1,0,0.,12.0,0.,12.0,0.,12.0,0.,12.0
1979-07-18 13:22:17.420 ,1,0,0.,12.0,0.,12.0,0.,12.0,0.,12.0
1979-07-18 13:22:29.420 ,0,0,0.,12.0,0.,12.0,0.,12.0,0.,12.0
1979-07-18 13:22:41.420 ,0,0,1.,12.0,0.,12.0,0.,12.0,0.,12.0
1979-07-18 13:22:53.420 ,0,0,0.,12.0,0.,12.0,0.,12.0,0.,12.0
1979-07-18 13:23:05.420 ,0,0,0.,12.0,0.,12.0,0.,12.0,0.,12.0
1979-07-18 13:23:17.420 ,0,0,0.,12.0,0.,12.0,0.,12.0,0.,12.0
1979-07-18 13:23:29.420 ,0,0,0.,12.0,0.,12.0,0.,12.0,0.,12.0
1979-07-18 13:23:41.420 ,0,0,0.,12.0,0.,12.0,0.,12.0,0.,12.0
1979-07-18 13:23:53.420 ,0,0,0.,12.0,0.,12.0,0.,12.0,0.,12.0
1979-07-18 13:24:05.420 ,1,0,0.,12.0,0.,12.0,0.,12.0,0.,12.0
1979-07-18 13:24:17.420 ,1,0,0.,12.0,0.,12.0,0.,12.0,0.,12.0
1979-07-18 13:24:29.420 ,1,0,0.,12.0,0.,12.0,0.,12.0,0.,12.0
1979-07-18 13:24:41.420 ,1,0,0.,12.0,0.,12.0,0.,12.0,0.,12.0
1979-07-18 13:24:53.420 ,2,0,0.,12.0,0.,12.0,0.,12.0,0.,12.0
1979-07-18 13:25:05.420 ,2,0,0.,12.0,0.,12.0,0.,12.0,0.,12.0
1979-07-18 13:25:17.420 ,2,0,0.,12.0,0.,12.0,0.,12.0,0.,12.0
1979-07-18 13:25:29.420 ,2,0,0.,12.0,0.,12.0,0.,12.0,0.,12.0
1979-07-18 13:25:41.420 ,3,0,0.,12.0,0.,12.0,0.,12.0,0.,12.0
1979-07-18 13:25:53.420 ,3,0,0.,12.0,0.,12.0,0.,12.0,0.,12.0
1979-07-18 13:26:05.420 ,3,0,0.,12.0,0.,12.0,0.,12.0,0.,12.0
1979-07-18 13:26:17.420 ,3,0,0.,12.0,0.,12.0,0.,12.0,0.,12.0
1979-07-18 13:27:17.420 ,0,0,0.,12.0,0.,12.0,0.,12.0,0.,12.0
1979-07-18 13:27:29.420 ,0,0,0.,12.0,0.,12.0,0.,12.0,0.,12.0
1979-07-18 13:27:41.420 ,0,0,0.,12.0,0.,12.0,0.,12.0,0.,12.0
1979-07-18 13:27:53.420 ,0,0,0.,12.0,0.,12.0,0.,12.0,0.,12.0